CDT,Max TemperatureF,Mean TemperatureF,Min TemperatureF,Max Dew PointF,MeanDew PointF,Min DewpointF,Max Humidity, Mean Humidity, Min Humidity, Max Sea Level PressureIn, Mean Sea Level PressureIn, Min Sea Level PressureIn, Max VisibilityMiles, Mean VisibilityMiles, Min VisibilityMiles, Max Wind SpeedMPH, Mean Wind SpeedMPH, Max Gust SpeedMPH,PrecipitationIn, CloudCover, Events, WindDirDegrees
2012-10-1,72,58,44,46,37,29,70,48,26,29.97,29.93,29.88,10,10,8,28,15,35,0.00,0,,333
2012-10-2,73,53,33,45,32,27,75,49,22,30.00,29.93,29.86,10,9,4,14,7,17,0.00,0,,240
2012-10-3,78,57,36,37,33,26,85,50,15,29.92,29.86,29.80,10,9,6,29,12,35,0.00,0,,175
2012-10-4,56,44,32,40,33,26,76,59,41,30.27,30.10,29.85,10,10,7,32,22,38,0.00,4,,298
2012-10-5,51,38,24,25,19,15,78,51,24,30.28,30.25,30.20,10,10,10,30,14,39,0.00,0,,303
2012-10-6,44,33,21,27,23,16,78,61,43,30.35,30.29,30.23,10,10,9,20,11,25,0.00,6,,323
2012-10-7,55,36,17,24,19,14,92,58,24,30.30,30.13,29.93,10,10,10,23,12,30,0.00,0,,227
2012-10-8,70,56,41,48,32,24,89,55,20,29.91,29.79,29.66,10,10,6,32,16,41,0.04,4,Rain,226
2012-10-9,51,40,28,47,36,24,93,70,46,30.10,29.91,29.76,10,10,8,30,14,38,0.03,5,Rain,284
2012-10-10,57,42,27,30,25,22,85,55,24,30.19,30.07,29.93,10,10,10,21,11,28,0.00,1,,239
2012-10-11,52,40,28,34,28,20,65,51,36,30.28,30.07,29.90,10,10,10,24,15,31,T,2,,316
2012-10-12,55,38,20,29,18,14,84,52,19,30.45,30.29,30.04,10,10,10,30,14,40,0.00,2,,142
2012-10-13,73,60,47,58,51,40,100,79,57,29.99,29.75,29.64,10,6,2,23,12,29,0.00,7,,186
2012-10-14,61,50,38,49,40,30,96,68,39,29.95,29.80,29.67,10,7,2,26,16,36,0.00,5,,336
2012-10-15,67,49,30,41,35,26,85,60,34,29.99,29.90,29.74,10,10,9,18,9,21,0.00,0,,210
2012-10-16,75,63,50,46,44,39,77,55,33,29.72,29.50,29.37,10,10,10,20,8,23,0.00,0,,187
2012-10-17,61,53,45,49,41,34,72,60,47,29.44,29.34,29.20,10,10,8,41,22,54,0.01,6,Rain,266
2012-10-18,47,43,39,45,41,36,89,80,70,29.43,29.32,29.23,10,7,2,32,20,39,0.22,8,Rain,308
2012-10-19,45,43,41,41,40,39,89,86,83,29.78,29.66,29.44,10,10,9,26,16,33,0.09,8,Rain,327
2012-10-20,57,49,40,44,40,38,96,79,61,29.85,29.80,29.75,10,9,6,16,8,20,0.00,5,,191
2012-10-21,75,57,39,53,46,39,96,71,46,29.90,29.80,29.75,10,9,8,24,13,30,0.00,0,,171
2012-10-22,65,57,48,58,50,44,90,75,60,29.89,29.84,29.77,9,8,4,16,11,21,0.00,7,,35
2012-10-23,63,59,55,61,57,53,100,89,78,29.80,29.73,29.69,8,3,0,18,9,22,T,8,Fog-Rain,185
2012-10-24,58,51,43,55,49,40,100,93,86,29.84,29.79,29.76,7,4,1,25,15,32,0.05,8,Rain,355
2012-10-25,43,38,33,40,33,26,96,83,70,30.29,29.91,29.69,10,6,1,35,23,45,0.76,8,Rain-Snow-Thunderstorm,334
2012-10-26,37,35,33,27,25,24,75,67,59,30.46,30.41,30.30,10,10,10,20,11,24,0.00,8,,306
2012-10-27,41,33,24,26,22,18,92,66,40,30.41,30.37,30.32,10,10,10,10,5,13,0.00,2,,173
2012-10-28,48,38,27,29,27,24,92,69,46,30.36,30.31,30.25,10,10,10,20,10,23,0.00,5,,160
2012-10-29,52,41,29,30,27,24,85,63,41,30.29,30.24,30.19,10,10,10,24,14,29,0.00,3,,145
2012-10-30,48,37,25,28,26,23,92,67,42,30.20,30.16,30.08,10,10,8,12,6,14,0.00,4,,43
2012-10-31,56,42,27,33,26,17,85,59,32,30.09,30.04,29.96,10,9,6,12,5,15,0.00,2,,300